Flag for France Weather past 2 weeks in Ajaccio, Corsica, France

Now
48 °F

Passing clouds.


Feels Like: 47 °F
Forecast: 43 / 55 °F
Wind: 3 mph from Northeast

Location: Ajaccio Airport

Current Time: Mar 1, 2015 at 12:07:18 AM

Latest Report: Feb 28, 2015 at 11:30 PM


Visibility: N/A

Pressure: 30.09 "Hg

Humidity: 94%

Dew point: 46 °F

Location of AjaccioLocation

Historic Weather in Ajaccio — Graph

°F

Ajaccio temperature yesterday

Maximum temperature yesterday: 55 °F (at 11:30 AM)
Minimum temperature yesterday: 39 °F (at 5:00 AM)
Average temperature yesterday: 48 °F

Past Weeks' High & Low Weather Summary

 TemperatureHumidityPressure
High61 °F (Feb 17, 2:00 PM)100% (Feb 15, 9:00 PM)30.48 "Hg (Feb 15, 9:00 PM)
Low37 °F (Feb 19, 7:30 AM)45% (Feb 19, 2:49 PM)29.36 "Hg (Feb 22, 4:30 AM)
Average49 °F80%29.91 "Hg
* Reported Feb 13 11:00 PM — Feb 28 11:00 PM, Ajaccio, Weather by CustomWeather, © 2015

Note: Actual official high and low records may vary slightly from our data, if they occured in-between our weather recording intervals... More about our weather records

Advertising

Ajaccio weather history for previous 24 hours

 ConditionsComfort  
Time TempWeatherWind HumidityBarometerVisibility
11:00 PM
Sat, Feb 28
48 °FOvercast.3 mph94%30.09 "HgN/A
10:30 PM48 °FOvercast.3 mph94%30.07 "HgN/A
10:00 PM50 °FOvercast.3 mph88%30.07 "HgN/A
9:30 PM50 °FMostly cloudy.3 mph88%30.09 "HgN/A
9:00 PM50 °FOvercast.5 mph88%30.07 "HgN/A
8:30 PM50 °FOvercast.2 mph88%30.07 "HgN/A
8:00 PM52 °FMostly cloudy.5 mph82%30.07 "HgN/A
7:30 PM52 °FMostly cloudy.3 mph77%30.04 "HgN/A
7:00 PM52 °FMostly cloudy.3 mph77%30.04 "HgN/A
6:30 PM54 °FMostly cloudy.5 mph72%30.04 "HgN/A
6:00 PM54 °FPartly sunny.7 mph72%30.01 "HgN/A
5:30 PM54 °FPartly sunny.6 mph72%30.01 "HgN/A
5:00 PM54 °FPartly sunny.7 mph72%30.01 "HgN/A
4:30 PM54 °FPartly sunny.8 mph72%30.01 "HgN/A
4:00 PM54 °FPartly sunny.10 mph72%30.01 "HgN/A
3:30 PM54 °FBroken clouds.8 mph77%30.01 "HgN/A
3:00 PM55 °FBroken clouds.7 mph67%30.01 "HgN/A
2:30 PM54 °FBroken clouds.7 mph72%29.98 "HgN/A
2:00 PM54 °FBroken clouds.7 mph77%30.01 "HgN/A
1:30 PM54 °FBroken clouds.7 mph77%30.01 "HgN/A
1:00 PM55 °FBroken clouds.6 mph67%30.01 "HgN/A
12:30 PM54 °FBroken clouds.9 mph77%30.01 "HgN/A
12:00 PM55 °FBroken clouds.6 mph67%30.01 "HgN/A
11:30 AM55 °FBroken clouds.2 mph63%30.01 "HgN/A
11:00 AM54 °FBroken clouds.5 mph67%30.01 "HgN/A
10:30 AM54 °FBroken clouds.3 mph72%30.01 "HgN/A
10:00 AM52 °FBroken clouds.5 mph77%30.01 "HgN/A
9:30 AM48 °FBroken clouds.5 mph82%30.01 "HgN/A
9:00 AM45 °FBroken clouds.6 mph87%29.98 "HgN/A
8:30 AM41 °FBroken clouds.8 mph93%29.98 "HgN/A
8:00 AM41 °FPartly sunny.7 mph93%29.98 "HgN/A
7:30 AM41 °FPartly sunny.6 mph93%29.95 "HgN/A
7:00 AM41 °FPassing clouds.5 mph87%29.95 "HgN/A
6:30 AM41 °FPassing clouds.3 mph93%29.92 "HgN/A
6:00 AM39 °FPassing clouds.3 mph100%29.92 "HgN/A
5:30 AM39 °FClear.5 mph93%29.92 "HgN/A
5:00 AM39 °FClear.3 mph93%29.92 "HgN/A
4:30 AM41 °FClear.2 mph93%29.92 "HgN/A
4:00 AM41 °FClear.5 mph87%29.92 "HgN/A
3:30 AM41 °FClear.6 mph87%29.92 "HgN/A
3:00 AM41 °FClear.6 mph93%29.92 "HgN/A
2:30 AM41 °FClear.6 mph87%29.92 "HgN/A
2:00 AM41 °FClear.7 mph93%29.92 "HgN/A
1:30 AM41 °FClear.6 mph93%29.95 "HgN/A
1:00 AM41 °FClear.5 mph93%29.95 "HgN/A
12:30 AM45 °FClear.5 mph81%29.95 "HgN/A
12:00 AM45 °FClear.7 mph87%29.95 "HgN/A
Weather by CustomWeather, © 2015

See weather overviewHow to use our weather pages